Location: Kellogg
(38.0159°N, 90.0546°W)
Time: 23:43:35
(UTC+00:00)

Tiros 1 despin weight - All Passes

Search period start: 11 September 2024 00:00
Search period end: 21 September 2024 00:00
Orbit: 573 x 617 km, 48.2° (Epoch: 11 September)

Date Brightness Start Highest point End Pass type
(mag) Time Alt. Az. Time Alt. Az. Time Alt. Az.
11 Sep - 09:37:42 10° SSW 09:41:58 43° SE 09:46:17 10° ENE visible
11 Sep - 11:18:43 10° W 11:23:03 43° NNW 11:27:24 10° NE daylight
11 Sep - 13:01:20 10° WNW 13:04:58 23° N 13:08:35 10° NE daylight
11 Sep - 14:43:04 10° NW 14:47:03 29° NNE 14:51:00 10° ENE daylight
11 Sep - 16:24:00 10° WNW 16:28:33 89° SSW 16:33:01 10° SE daylight
11 Sep - 18:06:27 10° W 18:09:05 15° SW 18:11:40 10° SSW daylight
12 Sep - 08:08:44 10° SSE 08:10:33 12° SE 08:12:23 10° ESE visible
12 Sep - 09:46:29 10° SW 09:50:59 74° SE 09:55:32 10° ENE visible
12 Sep - 11:28:17 10° W 11:32:22 32° NNW 11:36:28 10° NE daylight
12 Sep - 13:10:50 10° NW 13:14:26 22° N 13:18:01 10° NE daylight
12 Sep - 14:52:09 10° NW 14:56:24 37° NNE 15:00:36 10° E daylight
12 Sep - 16:33:12 10° WNW 16:37:36 53° SW 16:41:57 10° SE daylight
13 Sep - 08:15:52 10° S 08:19:22 22° SE 08:22:54 10° E visible
13 Sep - 09:55:35 10° WSW 10:00:06 69° NNW 10:04:39 10° NE visible
13 Sep - 11:37:55 10° WNW 11:41:45 26° NNW 11:45:35 10° NE daylight
13 Sep - 13:20:10 10° NW 13:23:52 24° N 13:27:35 10° ENE daylight
13 Sep - 15:01:11 10° NW 15:05:39 54° NNE 15:10:04 10° ESE daylight
13 Sep - 16:42:36 10° WNW 16:46:33 30° SW 16:50:26 10° SSE daylight
14 Sep - 08:24:03 10° SSW 08:28:14 39° SE 08:32:29 10° ENE visible
14 Sep - 10:04:56 10° W 10:09:17 45° NNW 10:13:40 10° NE visible
14 Sep - 11:47:31 10° WNW 11:51:10 23° N 11:54:48 10° NE daylight
14 Sep - 13:29:18 10° NW 13:33:16 28° NNE 13:37:11 10° ENE daylight
14 Sep - 15:10:14 10° NW 15:14:48 85° NNE 15:19:18 10° ESE daylight
14 Sep - 16:52:28 10° W 16:55:23 17° SW 16:58:15 10° S daylight
15 Sep - 06:55:36 10° SE 06:56:49 11° SE 06:58:02 10° ESE night (unlit)
15 Sep - 08:32:44 10° SW 08:37:12 69° SE 08:41:43 10° ENE visible
15 Sep - 10:14:25 10° W 10:18:32 33° NNW 10:22:40 10° NE visible
15 Sep - 11:56:59 10° NW 12:00:34 22° N 12:04:09 10° NE daylight
15 Sep - 13:38:21 10° NW 13:42:34 36° NNE 13:46:45 10° E daylight
15 Sep - 15:19:21 10° WNW 15:23:49 57° SW 15:28:12 10° SE daylight
16 Sep - 07:02:15 10° S 07:05:33 20° SE 07:08:54 10° E night (unlit)
16 Sep - 08:41:44 10° WSW 08:46:14 73° NNW 08:50:47 10° NE visible
16 Sep - 10:24:00 10° WNW 10:27:51 26° NNW 10:31:43 10° NE visible
16 Sep - 12:06:16 10° NW 12:09:58 24° N 12:13:39 10° ENE daylight
16 Sep - 13:47:19 10° NW 13:51:47 51° NNE 13:56:10 10° ESE daylight
16 Sep - 15:28:39 10° WNW 15:32:42 33° SW 15:36:43 10° SSE daylight
17 Sep - 07:10:16 10° SSW 07:14:22 36° SE 07:18:30 10° ENE visible
17 Sep - 08:50:59 10° W 08:55:21 48° NNW 08:59:45 10° NE visible
17 Sep - 10:33:32 10° WNW 10:37:11 23° N 10:40:51 10° NE visible
17 Sep - 12:15:23 10° NW 12:19:18 27° NNE 12:23:12 10° ENE daylight
17 Sep - 13:56:18 10° NW 14:00:52 79° NNE 14:05:23 10° ESE daylight
17 Sep - 15:38:21 10° W 15:41:30 19° SW 15:44:37 10° S daylight
18 Sep - 07:18:50 10° SW 07:23:14 63° SE 07:27:43 10° ENE visible
18 Sep - 09:00:24 10° W 09:04:32 34° NNW 09:08:42 10° NE visible
18 Sep - 10:42:58 10° NW 10:46:33 22° N 10:50:07 10° NE visible
18 Sep - 12:24:22 10° NW 12:28:33 34° NNE 12:32:43 10° E daylight
18 Sep - 14:05:20 10° WNW 14:09:50 63° SW 14:14:17 10° SE daylight
19 Sep - 05:48:30 10° S 05:51:36 19° SE 05:54:43 10° E night (unlit)
19 Sep - 07:27:44 10° WSW 07:32:13 79° NNW 07:36:45 10° NE visible
19 Sep - 09:09:54 10° WNW 09:13:46 27° NNW 09:17:40 10° NE visible
19 Sep - 10:52:13 10° NW 10:55:53 23° N 10:59:32 10° ENE visible
19 Sep - 12:33:17 10° NW 12:37:43 48° NNE 12:42:07 10° ESE daylight
19 Sep - 14:14:32 10° WNW 14:18:42 36° SW 14:22:49 10° SSE daylight
20 Sep - 05:56:21 10° SSW 06:00:20 33° SE 06:04:21 10° ENE night (unlit)
20 Sep - 07:36:53 10° WSW 07:41:15 50° NNW 07:45:41 10° NE visible
20 Sep - 09:19:24 10° WNW 09:23:03 23° N 09:26:44 10° NE visible
20 Sep - 11:01:18 10° NW 11:05:10 26° NNE 11:09:01 10° ENE visible
20 Sep - 12:42:13 10° NW 12:46:46 74° NNE 12:51:17 10° ESE daylight
20 Sep - 14:24:05 10° W 14:27:26 20° SW 14:30:46 10° S daylight
